• In Österreich
  • Länderverzeichnis
  • Für 7 Tage
  • Wassertemperatur
  • Satellitenkarten
  • Wetterkarte
  • News
  • Widgets
  • user-avatar
    Anmelden

    Stündliche Wetter Soma Bey

    Heute, 19 November, Sonntag

    Zeit Temperatur Niederschläge Wind Luftdruck Luftfeuchtigkeit
    00:00 +25°C° 0,1 mm 1 m/S 748 mmHg 84%
    01:00 +25°C° 0,1 mm 1 m/S 748 mmHg 84%
    02:00 +22°C° 0 mm 0 m/S 748 mmHg 86%
    03:00 +24°C° 0,1 mm 1 m/S 748 mmHg 86%
    04:00 +23°C° 0,1 mm 1 m/S 748 mmHg 85%
    05:00 +23°C° 0,1 mm 1 m/S 748 mmHg 85%
    06:00 +24°C° 0,1 mm 1 m/S 748 mmHg 82%
    07:00 +25°C° 0,1 mm 2 m/S 748 mmHg 79%
    08:00 +26°C° 0,1 mm 3 m/S 749 mmHg 76%
    09:00 +27°C° 0 mm 3 m/S 749 mmHg 70%
    10:00 +28°C° 0 mm 3 m/S 749 mmHg 63%
    11:00 +29°C° 0 mm 4 m/S 749 mmHg 57%
    12:00 +30°C° 0,1 mm 4 m/S 748 mmHg 54%
    13:00 +30°C° 0,1 mm 4 m/S 748 mmHg 51%
    14:00 +30°C° 0,1 mm 4 m/S 748 mmHg 49%
    15:00 +29°C° 0 mm 4 m/S 748 mmHg 52%
    16:00 +28°C° 0 mm 3 m/S 748 mmHg 56%
    17:00 +27°C° 0 mm 3 m/S 748 mmHg 60%
    18:00 +26°C° 0 mm 3 m/S 748 mmHg 63%
    19:00 +26°C° 0 mm 3 m/S 749 mmHg 66%
    20:00 +25°C° 0 mm 3 m/S 749 mmHg 69%
    21:00 +25°C° 0 mm 3 m/S 749 mmHg 71%
    22:00 +24°C° 0 mm 3 m/S 749 mmHg 73%
    23:00 +24°C° 0 mm 3 m/S 749 mmHg 74%

    Morgen, 20 November, Montag

    Zeit Temperatur Niederschläge Wind Luftdruck Luftfeuchtigkeit
    00:00 +24°C° 0 mm 3 m/S 749 mmHg 74%
    01:00 +22°C° 0 mm 3 m/S 749 mmHg 75%
    02:00 +22°C° 0 mm 3 m/S 749 mmHg 75%
    03:00 +22°C° 0 mm 3 m/S 749 mmHg 74%
    04:00 +21°C° 0 mm 3 m/S 749 mmHg 73%
    05:00 +21°C° 0 mm 3 m/S 749 mmHg 72%
    06:00 +22°C° 0 mm 3 m/S 749 mmHg 66%
    07:00 +24°C° 0 mm 3 m/S 750 mmHg 61%
    08:00 +25°C° 0 mm 3 m/S 750 mmHg 55%
    09:00 +26°C° 0 mm 4 m/S 750 mmHg 50%
    10:00 +27°C° 0 mm 4 m/S 750 mmHg 45%
    11:00 +28°C° 0 mm 4 m/S 750 mmHg 41%
    12:00 +28°C° 0 mm 4 m/S 749 mmHg 38%
    13:00 +29°C° 0 mm 5 m/S 749 mmHg 35%
    14:00 +29°C° 0 mm 5 m/S 748 mmHg 32%
    15:00 +29°C° 0 mm 5 m/S 748 mmHg 33%
    16:00 +28°C° 0 mm 5 m/S 748 mmHg 34%
    17:00 +27°C° 0 mm 5 m/S 748 mmHg 35%
    18:00 +26°C° 0 mm 5 m/S 749 mmHg 37%
    19:00 +25°C° 0 mm 5 m/S 749 mmHg 40%
    20:00 +23°C° 0 mm 5 m/S 750 mmHg 42%
    21:00 +22°C° 0 mm 5 m/S 750 mmHg 41%
    22:00 +22°C° 0 mm 5 m/S 750 mmHg 40%
    23:00 +21°C° 0 mm 5 m/S 750 mmHg 39%

    übermorgen, 21 November, Dienstag

    Zeit Temperatur Niederschläge Wind Luftdruck Luftfeuchtigkeit
    00:00 +21°C° 0 mm 5 m/S 749 mmHg 39%
    01:00 +20°C° 0 mm 5 m/S 749 mmHg 39%
    02:00 +20°C° 0 mm 5 m/S 749 mmHg 39%
    03:00 +19°C° 0 mm 5 m/S 749 mmHg 40%
    04:00 +19°C° 0 mm 5 m/S 749 mmHg 41%
    05:00 +17°C° 0 mm 5 m/S 749 mmHg 43%
    06:00 +19°C° 0 mm 5 m/S 750 mmHg 41%
    07:00 +20°C° 0 mm 5 m/S 750 mmHg 39%
    08:00 +21°C° 0 mm 5 m/S 751 mmHg 38%
    09:00 +22°C° 0 mm 5 m/S 751 mmHg 35%
    10:00 +23°C° 0 mm 5 m/S 751 mmHg 33%
    11:00 +25°C° 0 mm 5 m/S 750 mmHg 30%
    12:00 +26°C° 0 mm 5 m/S 750 mmHg 28%
    13:00 +27°C° 0 mm 5 m/S 749 mmHg 26%
    14:00 +27°C° 0 mm 6 m/S 749 mmHg 25%
    15:00 +26°C° 0 mm 6 m/S 749 mmHg 28%
    16:00 +26°C° 0 mm 6 m/S 749 mmHg 30%
    17:00 +24°C° 0 mm 7 m/S 749 mmHg 33%
    18:00 +23°C° 0 mm 7 m/S 749 mmHg 35%
    19:00 +22°C° 0 mm 6 m/S 750 mmHg 37%
    20:00 +21°C° 0 mm 6 m/S 750 mmHg 39%
    21:00 +21°C° 0 mm 6 m/S 750 mmHg 42%
    22:00 +20°C° 0 mm 6 m/S 750 mmHg 44%
    23:00 +19°C° 0 mm 6 m/S 750 mmHg 47%

    22 November, Mittwoch

    Zeit Temperatur Niederschläge Wind Luftdruck Luftfeuchtigkeit
    00:00 +19°C° 0 mm 6 m/S 750 mmHg 50%
    01:00 +17°C° 0 mm 6 m/S 750 mmHg 54%
    02:00 +17°C° 0 mm 6 m/S 749 mmHg 57%
    03:00 +16°C° 0 mm 6 m/S 750 mmHg 60%
    04:00 +16°C° 0 mm 6 m/S 750 mmHg 64%
    05:00 +16°C° 0 mm 6 m/S 750 mmHg 67%
    06:00 +16°C° 0 mm 6 m/S 750 mmHg 64%
    07:00 +17°C° 0 mm 6 m/S 751 mmHg 61%
    08:00 +19°C° 0 mm 5 m/S 751 mmHg 58%
    09:00 +20°C° 0 mm 6 m/S 751 mmHg 52%
    10:00 +21°C° 0 mm 6 m/S 751 mmHg 45%
    11:00 +22°C° 0 mm 6 m/S 751 mmHg 39%
    12:00 +23°C° 0 mm 6 m/S 750 mmHg 36%
    13:00 +24°C° 0 mm 7 m/S 750 mmHg 33%
    14:00 +24°C° 0 mm 7 m/S 749 mmHg 30%
    15:00 +23°C° 0 mm 7 m/S 749 mmHg 32%
    16:00 +23°C° 0 mm 8 m/S 749 mmHg 34%
    17:00 +22°C° 0 mm 8 m/S 750 mmHg 36%
    18:00 +21°C° 0 mm 7 m/S 750 mmHg 38%
    19:00 +20°C° 0 mm 7 m/S 750 mmHg 41%
    20:00 +18°C° 0 mm 7 m/S 751 mmHg 44%
    21:00 +18°C° 0 mm 7 m/S 751 mmHg 45%
    22:00 +17°C° 0 mm 6 m/S 751 mmHg 47%
    23:00 +16°C° 0 mm 6 m/S 751 mmHg 49%

    23 November, Donnerstag

    Zeit Temperatur Niederschläge Wind Luftdruck Luftfeuchtigkeit
    00:00 +16°C° 0 mm 6 m/S 751 mmHg 51%
    01:00 +16°C° 0 mm 6 m/S 750 mmHg 52%
    02:00 +15°C° 0 mm 6 m/S 750 mmHg 53%
    03:00 +15°C° 0 mm 6 m/S 750 mmHg 54%
    04:00 +14°C° 0 mm 5 m/S 750 mmHg 55%
    05:00 +14°C° 0 mm 5 m/S 750 mmHg 56%
    06:00 +15°C° 0 mm 5 m/S 751 mmHg 52%
    07:00 +16°C° 0 mm 5 m/S 751 mmHg 49%
    08:00 +17°C° 0 mm 6 m/S 752 mmHg 45%
    09:00 +20°C° 0 mm 6 m/S 751 mmHg 42%
    10:00 +21°C° 0 mm 6 m/S 751 mmHg 38%
    11:00 +22°C° 0 mm 6 m/S 751 mmHg 35%
    12:00 +23°C° 0 mm 6 m/S 751 mmHg 34%
    13:00 +23°C° 0 mm 6 m/S 750 mmHg 34%
    14:00 +23°C° 0 mm 6 m/S 750 mmHg 33%
    15:00 +23°C° 0 mm 6 m/S 750 mmHg 36%
    16:00 +22°C° 0 mm 6 m/S 750 mmHg 40%
    17:00 +21°C° 0 mm 6 m/S 750 mmHg 43%
    18:00 +20°C° 0 mm 5 m/S 750 mmHg 46%
    19:00 +20°C° 0 mm 5 m/S 751 mmHg 48%
    20:00 +19°C° 0 mm 5 m/S 751 mmHg 51%
    21:00 +19°C° 0 mm 5 m/S 751 mmHg 52%
    22:00 +17°C° 0 mm 5 m/S 751 mmHg 52%
    23:00 +17°C° 0 mm 5 m/S 751 mmHg 53%

    24 November, Freitag

    Zeit Temperatur Niederschläge Wind Luftdruck Luftfeuchtigkeit
    00:00 +16°C° 0 mm 5 m/S 750 mmHg 53%
    01:00 +16°C° 0 mm 5 m/S 750 mmHg 53%
    02:00 +16°C° 0 mm 5 m/S 750 mmHg 54%
    03:00 +15°C° 0 mm 5 m/S 750 mmHg 55%
    04:00 +15°C° 0 mm 5 m/S 750 mmHg 57%
    05:00 +15°C° 0 mm 5 m/S 750 mmHg 58%
    06:00 +16°C° 0 mm 5 m/S 750 mmHg 55%
    07:00 +17°C° 0 mm 5 m/S 751 mmHg 51%
    08:00 +19°C° 0 mm 5 m/S 751 mmHg 47%
    09:00 +20°C° 0 mm 5 m/S 751 mmHg 44%
    10:00 +21°C° 0 mm 5 m/S 751 mmHg 41%
    11:00 +23°C° 0 mm 5 m/S 751 mmHg 38%
    12:00 +23°C° 0 mm 6 m/S 750 mmHg 37%
    13:00 +24°C° 0 mm 6 m/S 750 mmHg 36%
    14:00 +24°C° 0 mm 6 m/S 750 mmHg 35%
    15:00 +23°C° 0 mm 5 m/S 750 mmHg 38%
    16:00 +22°C° 0 mm 5 m/S 750 mmHg 42%
    17:00 +21°C° 0 mm 5 m/S 750 mmHg 46%
    18:00 +21°C° 0 mm 5 m/S 750 mmHg 47%
    19:00 +20°C° 0 mm 4 m/S 751 mmHg 49%
    20:00 +19°C° 0 mm 4 m/S 751 mmHg 51%
    21:00 +19°C° 0 mm 4 m/S 751 mmHg 51%
    22:00 +18°C° 0 mm 4 m/S 751 mmHg 51%
    23:00 +18°C° 0 mm 4 m/S 751 mmHg 51%
    Mehr zeigen